Satellite: ORSTED
Catalog number: 25635
Epoch time:      103003.54247735
Element set:     797 
Inclination:       96.4467 deg
RA of node:         0.8083 deg
Eccentricity:    0.0146358
Arg of perigee:   114.7209 deg
Mean anomaly:     246.9302 deg
Mean motion:   14.44755178 rev/day
Decay rate:    5.8800E-006 rev/day^2
Epoch rev:           20329
Checksum:              315

Satellite: SUNSAT
Catalog number: 25636
Epoch time:      103001.93845697
Element set:     673 
Inclination:       96.4494 deg
RA of node:       358.3444 deg
Eccentricity:    0.0150260
Arg of perigee:   125.8313 deg
Mean anomaly:     235.6950 deg
Mean motion:   14.42910459 rev/day
Decay rate:    3.3100E-006 rev/day^2
Epoch rev:           20294
Checksum:              303

Satellite: UOSAT 12
Catalog number: 25693
Epoch time:      103003.89492200
Element set:     581 
Inclination:       64.5579 deg
RA of node:       150.5747 deg
Eccentricity:    0.0016370
Arg of perigee:   316.5936 deg
Mean anomaly:      43.3876 deg
Mean motion:   14.76329137 rev/day
Decay rate:    2.3299E-006 rev/day^2
Epoch rev:           19951
Checksum:              335

Satellite: FENGYUN 1C
Catalog number: 25730
Epoch time:      103004.22243097
Element set:     734 
Inclination:       98.6370 deg
RA of node:        30.3214 deg
Eccentricity:    0.0015203
Arg of perigee:   130.0084 deg
Mean anomaly:     230.2425 deg
Mean motion:   14.11728863 rev/day
Decay rate:    3.3000E-007 rev/day^2
Epoch rev:           18823
Checksum:              243

Satellite: ASTRA 1H
Catalog number: 25785
Epoch time:      102364.00000000
Element set:     367 
Inclination:        0.0122 deg
RA of node:       319.8851 deg
Eccentricity:    0.0002995
Arg of perigee:    65.1991 deg
Mean anomaly:      92.3410 deg
Mean motion:    1.00273184 rev/day
Decay rate:    1.2799E-006 rev/day^2
Epoch rev:            1299
Checksum:              264

Satellite: TERRA
Catalog number: 25994
Epoch time:      103004.12816373
Element set:     565 
Inclination:       98.2074 deg
RA of node:        81.0365 deg
Eccentricity:    0.0000611
Arg of perigee:    94.9832 deg
Mean anomaly:     265.1451 deg
Mean motion:   14.57155436 rev/day
Decay rate:    2.8300E-006 rev/day^2
Epoch rev:           16205
Checksum:              403

Satellite: JAWSAT
Catalog number: 26061
Epoch time:      103004.20730810
Element set:     732 
Inclination:      100.2121 deg
RA of node:        52.8443 deg
Eccentricity:    0.0035435
Arg of perigee:    48.5553 deg
Mean anomaly:     311.8661 deg
Mean motion:   14.37767496 rev/day
Decay rate:    6.0699E-006 rev/day^2
Epoch rev:           15401
Checksum:              274

Satellite: OPAL
Catalog number: 26063
Epoch time:      103003.69182356
Element set:     689 
Inclination:      100.2187 deg
RA of node:        49.9327 deg
Eccentricity:    0.0037417
Arg of perigee:    55.7944 deg
Mean anomaly:     304.6771 deg
Mean motion:   14.35460400 rev/day
Decay rate:    1.4800E-006 rev/day^2
Epoch rev:           15380
Checksum:              392

Satellite: ASUSAT
Catalog number: 26065
Epoch time:      103004.20715448
Element set:     700 
Inclination:      100.2176 deg
RA of node:        50.6813 deg
Eccentricity:    0.0037797
Arg of perigee:    56.2015 deg
Mean anomaly:     304.2751 deg
Mean motion:   14.35486536 rev/day
Decay rate:    1.8299E-006 rev/day^2
Epoch rev:           15387
Checksum:              290

Satellite: GOES 11
Catalog number: 26352
Epoch time:      103003.47422521
Element set:     957 
Inclination:        0.0416 deg
RA of node:       142.7888 deg
Eccentricity:    0.0004552
Arg of perigee:   129.4138 deg
Mean anomaly:     249.2503 deg
Mean motion:    1.00260078 rev/day
Decay rate:   -4.3000E-007 rev/day^2
Epoch rev:             977
Checksum:              370

Satellite: EUTELSAT W4
Catalog number: 26369
Epoch time:      102365.18880209
Element set:     334 
Inclination:        0.0264 deg
RA of node:         6.8932 deg
Eccentricity:    0.0003444
Arg of perigee:   271.2514 deg
Mean anomaly:     285.3827 deg
Mean motion:    1.00274671 rev/day
Decay rate:    1.6100E-006 rev/day^2
Epoch rev:             955
Checksum:              274

Satellite: FENGYUN 2B
Catalog number: 26382
Epoch time:      103001.90659179
Element set:     761 
Inclination:        0.6868 deg
RA of node:       286.6482 deg
Eccentricity:    0.0000426
Arg of perigee:   204.2313 deg
Mean anomaly:      41.2136 deg
Mean motion:    1.00272208 rev/day
Decay rate:   -3.2699E-006 rev/day^2
Epoch rev:             923
Checksum:              277

Satellite: EUTELSAT W1
Catalog number: 26487
Epoch time:      102365.14877895
Element set:     334 
Inclination:        0.0277 deg
RA of node:       118.3689 deg
Eccentricity:    0.0003899
Arg of perigee:   159.0833 deg
Mean anomaly:     245.4310 deg
Mean motion:    1.00270091 rev/day
Decay rate:    7.4000E-007 rev/day^2
Epoch rev:             852
Checksum:              294

Satellite: ASTRA 2B
Catalog number: 26494
Epoch time:      102364.00000000
Element set:     250 
Inclination:        0.0178 deg
RA of node:       354.5658 deg
Eccentricity:    0.0005000
Arg of perigee:   302.8402 deg
Mean anomaly:     189.0339 deg
Mean motion:    1.00276704 rev/day
Decay rate:    1.5800E-006 rev/day^2
Epoch rev:             841
Checksum:              227

Satellite: NOAA 16
Catalog number: 26536
Epoch time:      103003.80221733
Element set:     149 
Inclination:       98.8968 deg
RA of node:       312.4392 deg
Eccentricity:    0.0011418
Arg of perigee:    76.4636 deg
Mean anomaly:     283.7804 deg
Mean motion:   14.11874567 rev/day
Decay rate:   -1.8999E-007 rev/day^2
Epoch rev:           11769
Checksum:              346

Satellite: SAUDISAT 1A
Catalog number: 26545
Epoch time:      103004.03698099
Element set:     393 
Inclination:       64.5560 deg
RA of node:       171.8493 deg
Eccentricity:    0.0054920
Arg of perigee:   245.8586 deg
Mean anomaly:     113.6798 deg
Mean motion:   14.78830332 rev/day
Decay rate:    9.6200E-006 rev/day^2
Epoch rev:           12248
Checksum:              328

Satellite: UNISAT
Catalog number: 26547
Epoch time:      103001.81501062
Element set:     415 
Inclination:       64.5560 deg
RA of node:       181.0874 deg
Eccentricity:    0.0062074
Arg of perigee:   248.7262 deg
Mean anomaly:     110.7138 deg
Mean motion:   14.79493574 rev/day
Decay rate:    1.8110E-005 rev/day^2
Epoch rev:           12212
Checksum:              272

Satellite: TIUNGSAT 1
Catalog number: 26548
Epoch time:      103002.57630352
Element set:     396 
Inclination:       64.5556 deg
RA of node:       169.7454 deg
Eccentricity:    0.0048343
Arg of perigee:   244.6358 deg
Mean anomaly:     114.9705 deg
Mean motion:   14.81074539 rev/day
Decay rate:    1.3189E-005 rev/day^2
Epoch rev:           12240
Checksum:              315

Satellite: SAUDISAT 1B
Catalog number: 26549
Epoch time:      103003.90506276
Element set:     657 
Inclination:       64.5529 deg
RA of node:       176.1363 deg
Eccentricity:    0.0059226
Arg of perigee:   246.3454 deg
Mean anomaly:     113.1415 deg
Mean motion:   14.77774082 rev/day
Decay rate:    9.1499E-006 rev/day^2
Epoch rev:           12239
Checksum:              322

Satellite: AMSAT OSCAR 40
Catalog number: 26609
Epoch time:      103002.48921818
Element set:     300 
Inclination:        7.8950 deg
RA of node:        72.8649 deg
Eccentricity:    0.7933508
Arg of perigee:   128.8606 deg
Mean anomaly:     331.3315 deg
Mean motion:    1.25596303 rev/day
Decay rate:   -7.5000E-007 rev/day^2
Epoch rev:             999
Checksum:              391

Satellite: GOES 12
Catalog number: 26871
Epoch time:      103003.46923635
Element set:     753 
Inclination:        0.4386 deg
RA of node:        98.1521 deg
Eccentricity:    0.0000875
Arg of perigee:    39.5718 deg
Mean anomaly:      28.7262 deg
Mean motion:    1.00261187 rev/day
Decay rate:   -8.8000E-007 rev/day^2
Epoch rev:             537
Checksum:              404

Satellite: STARSHINE 3
Catalog number: 26929
Epoch time:      103004.20620740
Element set:     637 
Inclination:       67.0268 deg
RA of node:       115.8892 deg
Eccentricity:    0.0006101
Arg of perigee:   317.7705 deg
Mean anomaly:      42.3066 deg
Mean motion:   15.99709271 rev/day
Decay rate:    3.7073E-003 rev/day^2
Epoch rev:            7160
Checksum:              293

Satellite: PCSAT
Catalog number: 26931
Epoch time:      103004.24500366
Element set:     368 
Inclination:       67.0494 deg
RA of node:        12.2950 deg
Eccentricity:    0.0005404
Arg of perigee:   255.8167 deg
Mean anomaly:     104.2333 deg
Mean motion:   14.29086273 rev/day
Decay rate:    1.6599E-006 rev/day^2
Epoch rev:            6587
Checksum:              296

Satellite: SAPPHIRE
Catalog number: 26932
Epoch time:      103003.24915670
Element set:     362 
Inclination:       67.0566 deg
RA of node:        14.5755 deg
Eccentricity:    0.0006725
Arg of perigee:   238.8091 deg
Mean anomaly:     121.2350 deg
Mean motion:   14.29273717 rev/day
Decay rate:    1.4600E-006 rev/day^2
Epoch rev:            6575
Checksum:              287

Satellite: ENVISAT
Catalog number: 27386
Epoch time:      103004.13590255
Element set:     812 
Inclination:       98.5501 deg
RA of node:        73.3401 deg
Eccentricity:    0.0000975
Arg of perigee:    94.9161 deg
Mean anomaly:     265.2148 deg
Mean motion:   14.32249444 rev/day
Decay rate:    1.9700E-006 rev/day^2
Epoch rev:            4424
Checksum:              283

